Location: New Frontier Mobile Home Park
(32.8448°N, 116.9675°W)
Time: 22:37:25
(UTC+00:00)

Cosmos 1975 Rocket - Pass Details

Date: 14 July 2020
Orbit: 604 x 633 km, 82.5° (Epoch: 05 August)

Event Time Altitude Azimuth Distance (km) Brightness Sun altitude
Rises 11:42:02 0° 349° (N) 2,907 6.9 -13.0°
Reaches altitude 10° 11:44:16 10° 347° (NNW) 2,001 6.0 -12.7°
Maximum altitude 11:48:39 63° 266° (W) 700 3.1 -11.9°
Drops below altitude 10° 11:53:03 10° 185° (S) 2,002 5.3 -11.2°
Enters shadow 11:55:14 - 182° (S) 2,884 6.1 -10.8°
